FW3609 Weather Reports


Display with metric or nautical units.
time (UTC)temp
F
wind
direction
speed
MPH
gust
MPH
rain 1hr
in
rain 24hr
in
rain mn
in
humidity
%
barometer
mb
20260504191556 76 255 1.0 8.0 0.00 0.00 0.00 39 1012.8
20260504190007 75 209 0.0 11.0 0.00 0.00 0.00 39 1012.9
20260504184545 76 73 2.0 6.0 0.00 0.00 0.00 38 1013.2
20260504183100 75 200 1.0 7.0 0.00 0.00 0.00 40 1013.4
20260504181521 74 300 2.0 7.0 0.00 0.00 0.00 40 1013.5
20260504180049 74 153 1.0 7.0 0.00 0.00 0.00 40 1013.9
20260504174514 74 143 1.0 5.0 0.00 0.00 0.00 38 1014.0
20260504173045 73 189 3.0 10.0 0.00 0.00 0.00 38 1014.0
20260504171602 72 97 3.0 7.0 0.00 0.00 0.00 37 1014.2
20260504081519 45 255 0.0 0.0 0.00 0.00 0.00 87 1017.4
20260504044552 40 255 0.0 0.0 0.00 0.00 0.00 87 1017.7
20260504043019 40 255 0.0 0.0 0.00 0.00 0.00 85 1017.7
20260504041542 41 255 0.0 0.0 0.00 0.00 0.00 85 1017.7
20260504040008 41 255 0.0 0.0 0.00 0.00 0.00 84 1017.8
20260504034543 41 255 0.0 0.0 0.00 0.00 0.00 83 1017.8
20260504033005 42 255 0.0 0.0 0.00 0.00 0.00 82 1017.5
20260504031541 42 255 0.0 0.0 0.00 0.00 0.00 81 1017.3
20260504024529 43 255 0.0 0.0 0.00 0.00 0.00 78 1017.1
20260504023052 44 255 0.0 0.0 0.00 0.00 0.00 76 1017.0
20260504021519 45 255 0.0 0.0 0.00 0.00 0.00 74 1017.1
20260504020058 46 255 0.0 0.0 0.00 0.00 0.00 72 1017.1
20260504014519 47 255 0.0 0.0 0.00 0.00 0.00 69 1016.9
20260504013043 48 255 0.0 0.0 0.00 0.00 0.00 67 1016.9
20260504011504 49 255 0.0 0.0 0.00 0.00 0.00 62 1016.6
20260504010031 51 255 0.0 0.0 0.00 0.00 0.00 58 1016.6
20260504004503 52 255 0.0 0.0 0.00 0.00 0.00 53 1016.6
20260504003033 54 255 0.0 0.0 0.00 0.00 0.00 50 1016.4
20260504001602 56 255 0.0 0.0 0.00 0.00 0.00 45 1016.3
20260504000027 58 255 0.0 1.0 0.00 0.00 0.00 40 1016.2
20260503234624 59 252 0.0 0.0 0.00 0.00 0.00 37 1016.1
20260503233030 61 274 0.0 3.0 0.00 0.00 0.00 35 1016.0
20260503231549 63 264 0.0 3.0 0.00 0.00 0.00 34 1015.9
20260503230012 63 351 0.0 5.0 0.00 0.00 0.00 32 1015.8
20260503224538 64 264 1.0 5.0 0.00 0.00 0.00 32 1015.9
20260503223005 63 240 1.0 9.0 0.00 0.00 0.00 31 1015.9
20260503221536 63 1 1.0 10.0 0.00 0.00 0.00 33 1015.9
20260503214525 62 34 3.0 11.0 0.00 0.00 0.00 32 1016.1
20260503213052 63 267 1.0 11.0 0.00 0.00 0.00 32 1016.1
20260503211514 62 313 3.0 11.0 0.00 0.00 0.00 33 1015.8
20260503210040 63 269 2.0 7.0 0.00 0.00 0.00 33 1016.0
20260503204504 62 291 4.0 9.0 0.00 0.00 0.00 33 1016.2
20260503203026 60 245 2.0 14.0 0.00 0.00 0.00 34 1016.2
20260503201556 61 242 3.0 12.0 0.00 0.00 0.00 34 1016.4
20260503200021 61 290 3.0 9.0 0.00 0.00 0.00 35 1016.6
20260503194556 60 286 3.0 9.0 0.00 0.00 0.00 38 1016.7
20260503193014 59 308 1.0 10.0 0.00 0.00 0.00 39 1017.0